This is the latest recevied weather packets stored in our database for station/object SP9INZ-13. If no packets are shown the sender has not sent any weather packets the latest 10 day(s).
| Time | Temp. | Humidity | Pressure | Rain* | Wind** | Luminosity | Snow |
|---|---|---|---|---|---|---|---|
| 1777720461 | 26.67° C | 25% | 1026.2 hPa | - | - | - | - |
| 1777719503 | 22.22° C | 29% | 1028.5 hPa | - | - | - | - |
| 1777718545 | 22.22° C | 32% | 1028.2 hPa | - | - | - | - |
| 1777717588 | 21.67° C | 33% | 1028.3 hPa | - | - | - | - |
| 1777716629 | 21.67° C | 36% | 1028.3 hPa | - | - | - | - |
| 1777715671 | 21.67° C | 38% | 1027.9 hPa | - | - | - | - |
| 1777714713 | 21.11° C | 39% | 1028.1 hPa | - | - | - | - |
| 1777713755 | 20.56° C | 40% | 1028.6 hPa | - | - | - | - |
| 1777712798 | 20.56° C | 42% | 1028.3 hPa | - | - | - | - |
| 1777711840 | 20° C | 42% | 1028.7 hPa | - | - | - | - |
| 1777710882 | 20° C | 42% | 1028.8 hPa | - | - | - | - |
| 1777709926 | 18.89° C | 45% | 1029.1 hPa | - | - | - | - |
| 1777708966 | 18.89° C | 46% | 1029 hPa | - | - | - | - |
| 1777708007 | 18.89° C | 45% | 1029 hPa | - | - | - | - |
| 1777707051 | 18.33° C | 48% | 1028.7 hPa | - | - | - | - |
| 1777706091 | 18.33° C | 48% | 1028.9 hPa | - | - | - | - |
| 1777705133 | 16.67° C | 55% | 1028.5 hPa | - | - | - | - |
| 1777704176 | 17.78° C | 52% | 1028.3 hPa | - | - | - | - |
| 1777703219 | 17.22° C | 52% | 1028.4 hPa | - | - | - | - |
| 1777702259 | 14.44° C | 61% | 1028.9 hPa | - | - | - | - |
| 1777701301 | 14.44° C | 60% | 1028.9 hPa | - | - | - | - |
| 1777700344 | 14.44° C | 61% | 1028.5 hPa | - | - | - | - |
| 1777699386 | 12.22° C | 65% | 1029.4 hPa | - | - | - | - |
| 1777698427 | 13.33° C | 64% | 1028.9 hPa | - | - | - | - |
| 1777697469 | 13.33° C | 62% | 1028.9 hPa | - | - | - | - |
* Rain since midnight (hover to see other rain measurements)
** Current wind speed in m/s (hover to see current wind gust speed)